Regional Weather Roundup
Issued by NWS Charleston, SC

Current Version | Previous Version | Text Only | Print | Product List | Glossary Off
Versions: 1 2 3 4 5 6 7 8 9 10 11 12 13 14 15 16 17 18 19 20 21 22 23 24 25 26 27 28 29 30 31 32 33 34 35 36 37 38 39 40 41 42 43 44 45 46 47 48 49 50

000
ASUS42 KCHS 051812
RWRCHS

REGIONAL WEATHER ROUNDUP
NATIONAL WEATHER SERVICE CHARLESTON SC
200 PM EDT SUN JUL 05 2015

NOTE: "FAIR" INDICATES FEW OR NO CLOUDS BELOW 12,000 FEET WITH NO
SIGNIFICANT WEATHER AND/OR OBSTRUCTIONS TO VISIBILITY.

NOT ALL STATIONS ARE QUALITY CONTROLLED BY THE NATIONAL
WEATHER SERVICE. USE DATA WITH CAUTION...ESPECIALLY
DEWPOINT OBSERVATIONS.

SCZ027-030-031-034>040-042>050-051900-
...SOUTHEAST SOUTH CAROLINA...

CITY           SKY/WX    TMP DP  RH WIND       PRES   REMARKS
N CHARLESTON   MOSUNNY   89  71  55 S9        30.13F HX  95
6HR MIN TEMP:  75; 6HR MAX TEMP:  89;

WATERFRONT PAR   N/A     84  75  74 S12       30.11F HX  92
MOUNT PLEASANT FAIR      88  75  66 S13       30.14S HX  97
JOHNS ISLAND   FAIR      88  77  70 S12       30.14S HX 100
PINOPOLIS      NOT AVBL
MONCKS CORNER  MOCLDY    90  72  55 SW7       30.13S HX  96
SUMMERVILLE    MOCLDY    88  72  58 S6        30.13F HX  94
BEAUFORT MCAS  TSTM      74  69  85 W8        30.14R
6HR MIN TEMP:  75; 6HR MAX TEMP:  90; 6HR PCP:  0.12;

BEAUFORT ARPT  MOCLDY    86  72  62 W16       30.14R HX  92
HILTON HEAD IS MOSUNNY   86  79  79 SE8       30.15S HX  99
WALTERBORO     PTCLDY    86  72  62 S8        30.13F HX  92
ALLENDALE      MOCLDY    88  70  55 CALM      30.11F HX  92

...SOUTHERN MIDLANDS AND PEE DEE...

CITY           SKY/WX    TMP DP  RH WIND       PRES   REMARKS
GEORGETOWN     NOT AVBL
KINGSTREE      NOT AVBL
ORANGEBURG     MOSUNNY   89  65  44 S7        30.12F HX  91
6HR MIN TEMP:  72; 6HR MAX TEMP:  89;

BARNWELL       CLOUDY    90  70  51 SW9G16    30.13S HX  95
AIKEN          NOT AVBL
MANNING        FAIR      88  63  42 S8        30.12S
COLUMBIA       PTSUNNY   90  65  43 SW10      30.09F HX  92
6HR MIN TEMP:  74; 6HR MAX TEMP:  90;

SUMTER         MOSUNNY   89  68  50 S8        30.09F HX  93
6HR MIN TEMP:  74; 6HR MAX TEMP:  89;

FLORENCE       MOSUNNY   88  69  53 S6        30.10F HX  92
6HR MIN TEMP:  75; 6HR MAX TEMP:  90;

MYRTLE BEACH   MOSUNNY   88  73  62 S16       30.14F HX  96
N MYRTLE BEACH SUNNY     84  74  71 S12       30.14F HX  91
6HR MIN TEMP:  77; 6HR MAX TEMP:  85;


$$

GAZ063-065-086>088-099>101-113>116-118-119-134>141-150-051900-
...SOUTHEAST GEORGIA...

CITY           SKY/WX    TMP DP  RH WIND       PRES   REMARKS
SAVANNAH ARPT  PTSUNNY   83  72  69 N12       30.12S THUNDER
6HR MIN TEMP:  74; 6HR MAX TEMP:  92; 6HR PCP: TRACE;

HUNTER AAF     MOSUNNY   90  74  58 S10       30.10F HX  98
6HR MIN TEMP:  74; 6HR MAX TEMP:  90; 6HR PCP:  0.01;

FORT STEWART   PTSUNNY   89  72  58 SW8       30.10F HX  95
6HR MIN TEMP:  75; 6HR MAX TEMP:  91;

STATESBORO     NOT AVBL
SYLVANIA       CLOUDY    88  73  60 W6        30.14S HX  96
CLAXTON        LGT RAIN  86  73  66 W7        30.13S HX  93

...CSRA...CENTRAL AND FAR SOUTHEAST GEORGIA...

CITY           SKY/WX    TMP DP  RH WIND       PRES   REMARKS
THOMSON        PTSUNNY   86  72  63 W10G17    30.17S HX  92
AUGUSTA-BUSH   MOSUNNY   87  67  51 SW13      30.10F HX  90
6HR MIN TEMP:  73; 6HR MAX TEMP:  89; 6HR PCP: TRACE;

AUGUSTA-DANIEL MOSUNNY   87  68  52 VRB6      30.12F HX  90
SWAINSBORO     FAIR      90  70  51 W7G16     30.14S HX  95
VIDALIA        PTSUNNY   90  70  51 SW9       30.13F HX  95
EASTMAN        MOCLDY    83  72  69 W9        30.19R
HAZLEHURST     TSTM      75  75  99 W12       30.16R
ALMA           PTSUNNY   83  73  72 S9        30.13S
6HR MIN TEMP:  73; 6HR MAX TEMP:  90;

WAYCROSS       MOSUNNY   91  75  61 N14       30.12F THUNDER HX 101
JESUP          FAIR      93  73  52 SW5       30.13S HX 102
BAXLEY         FAIR      88  73  62 SW5       30.13F HX  96
BRUNSWICK      MOSUNNY   90  73  58 S7        30.13F HX  98
SAINT SIMONS   SUNNY     85  74  69 S9        30.14F HX  92
6HR MIN TEMP:  76; 6HR MAX TEMP:  87;


$$

SCZ027-028-034-036>038-045-046-048>050-GAZ119-141-051900-
...LAKE AND SUPPLEMENTAL COASTAL OBSERVATIONS...

STATION/POSITION TIME  TEMP    WIND        PRES    WAVE   SWELL
                       AIR SEA DIR/SP/G            HT/PER HT/PER/DIR
                 (UTC) (F)     (DEG/KT/KT) (MB)    (FT/S) (FT/S/D)
UPR LAKE MARION  NOT AVBL
WINYAH BAY       NOT AVBL
LAKE MURRAY      1700   85     180/  5/  5 1019.0F
ACE BASIN NERRS  NOT AVBL
FORT PULASKI     1700   85 83  150/  6/  9 1021.0F
SAPELO ISLAND    1700   89     160/  6     1021.0S

$$

ANZ835-935-AMZ111-154-330-350-352-354-370-450-454-472-051900-
...C-MAN AND BUOY OBSERVATIONS...

STATION/POSITION TIME  TEMP    WIND        PRES    WAVE   SWELL
                       AIR SEA DIR/SP/G            HT/PER HT/PER/DIR
                 (UTC) (F)     (DEG/KT/KT) (MB)    (FT/S) (FT/S/D)
BUOY 41004       1750   82 83  200/  8/ 10 1021.0F   3/ 8   2/ 8
BUOY 41008       1750   78 80  170/ 10/ 12 1021.3S   2/ 9   2/140/ 9
FOLLY BEACH CMAN 1700   83     200/  9/ 11 1021.2F
CAPERS NEARSHORE 1708   82     210/ 12/ 16 1021.4F
FRIPP NEARSHORE  1700   83     180/ 12/ 14 1020.6F


STATION/POSITION TIME  TEMP    WIND        PRES    WAVE   SWELL
                       AIR SEA DIR/SP/G            HT/PER HT/PER/DIR
                 (UTC) (F)     (DEG/KT/KT) (MB)    (FT/S) (FT/S/D)
5E ST. MARYS GA  1721      78                N/A     2/ 8
FRYING PAN BUOY  1750   81 80  200/  6/  8 1021.8R   3/ 5   3/180/ 5
BUOY 41025       1750   81 81  220/ 14/ 16 1020.8S   3/ 5   2/150/14
CAPE LOOKOUT NC  1700   82     220/  9/ 12 1020.8F
BUOY 41002       1750   80 80  210/ 10/ 12 1023.7F   4/ 9   3/140/ 9
BUOY 41010       1720   76 84   10/ 17/ 21 1023.3R
ST AUGUSTINE FL  1800   78 72  130/  9/  9 1021.8F


$$


USA.gov is the U.S. government's official web portal to all federal, state and local government web resources and services.